When you browse on this site, cookies collect data to enhance your experience and personalize the content and advertising you see.
Visit our Privacy Policy to learn more. By continuing to use the site, you agree to this use of cookies and data.
  • In Spain
  • List of Countries
  • For 7 days
  • Water Temperature
  • Weather Map
  • Weather Widgets
  • user-avatar
    Login

    Hourly Weather Salta

    Today, 1 June, Monday

    Time Temperature Precipitation Wind Pressure Humidity
    00:00 +7°C° 0 mm 0 mps 652 mmHg 75%
    01:00 +7°C° 0 mm 0 mps 652 mmHg 76%
    02:00 +7°C° 0 mm 0 mps 651 mmHg 77%
    03:00 +7°C° 0 mm 0 mps 651 mmHg 77%
    04:00 +7°C° 0 mm 0 mps 651 mmHg 77%
    05:00 +7°C° 0 mm 0 mps 651 mmHg 76%
    06:00 +7°C° 0 mm 0 mps 652 mmHg 74%
    07:00 +7°C° 0 mm 0 mps 652 mmHg 72%
    08:00 +8°C° 0 mm 0 mps 653 mmHg 70%
    09:00 +10°C° 0 mm 0 mps 653 mmHg 64%
    10:00 +13°C° 0 mm 1 mps 653 mmHg 57%
    11:00 +15°C° 0 mm 1 mps 654 mmHg 51%
    12:00 +15°C° 0 mm 1 mps 653 mmHg 50%
    13:00 +16°C° 0 mm 2 mps 653 mmHg 49%
    14:00 +16°C° 0 mm 2 mps 652 mmHg 48%
    15:00 +15°C° 0 mm 2 mps 652 mmHg 50%
    16:00 +14°C° 0 mm 2 mps 652 mmHg 52%
    17:00 +13°C° 0 mm 2 mps 652 mmHg 54%
    18:00 +10°C° 0 mm 2 mps 652 mmHg 58%
    19:00 +10°C° 0 mm 1 mps 652 mmHg 62%
    20:00 +7°C° 0 mm 0 mps 652 mmHg 66%
    21:00 +6°C° 0 mm 0 mps 652 mmHg 68%
    22:00 +6°C° 0 mm 0 mps 652 mmHg 69%
    23:00 +5°C° 0 mm 0 mps 652 mmHg 70%

    Tomorrow, 2 June, Tuesday

    Time Temperature Precipitation Wind Pressure Humidity
    00:00 +5°C° 0 mm 0 mps 652 mmHg 71%
    01:00 +5°C° 0 mm 0 mps 652 mmHg 71%
    02:00 +5°C° 0 mm 0 mps 651 mmHg 72%
    03:00 +5°C° 0 mm 0 mps 651 mmHg 72%
    04:00 +5°C° 0 mm 0 mps 651 mmHg 73%
    05:00 +5°C° 0 mm 1 mps 651 mmHg 73%
    06:00 +6°C° 0 mm 0 mps 651 mmHg 69%
    07:00 +7°C° 0 mm 0 mps 652 mmHg 65%
    08:00 +8°C° 0 mm 0 mps 653 mmHg 61%
    09:00 +11°C° 0 mm 1 mps 653 mmHg 54%
    10:00 +14°C° 0 mm 1 mps 653 mmHg 48%
    11:00 +18°C° 0 mm 1 mps 654 mmHg 42%
    12:00 +17°C° 0 mm 2 mps 653 mmHg 41%
    13:00 +18°C° 0 mm 2 mps 652 mmHg 40%
    14:00 +19°C° 0 mm 2 mps 651 mmHg 39%
    15:00 +18°C° 0 mm 2 mps 651 mmHg 43%
    16:00 +16°C° 0 mm 2 mps 650 mmHg 47%
    17:00 +15°C° 0 mm 2 mps 649 mmHg 51%
    18:00 +13°C° 0 mm 1 mps 649 mmHg 56%
    19:00 +11°C° 0 mm 1 mps 649 mmHg 61%
    20:00 +8°C° 0 mm 0 mps 648 mmHg 66%
    21:00 +9°C° 0 mm 1 mps 648 mmHg 67%
    22:00 +8°C° 0 mm 1 mps 648 mmHg 68%
    23:00 +8°C° 0 mm 1 mps 648 mmHg 70%

    Day after tomorrow, 3 June, Wednesday

    Time Temperature Precipitation Wind Pressure Humidity
    00:00 +7°C° 0 mm 1 mps 648 mmHg 70%
    01:00 +7°C° 0 mm 1 mps 647 mmHg 70%
    02:00 +7°C° 0 mm 1 mps 647 mmHg 71%
    03:00 +7°C° 0 mm 1 mps 647 mmHg 70%
    04:00 +7°C° 0 mm 1 mps 646 mmHg 69%
    05:00 +6°C° 0 mm 1 mps 646 mmHg 69%
    06:00 +7°C° 0 mm 1 mps 647 mmHg 65%
    07:00 +8°C° 0 mm 1 mps 647 mmHg 62%
    08:00 +9°C° 0 mm 1 mps 648 mmHg 59%
    09:00 +12°C° 0 mm 1 mps 649 mmHg 52%
    10:00 +15°C° 0 mm 1 mps 649 mmHg 45%
    11:00 +19°C° 0 mm 1 mps 650 mmHg 38%
    12:00 +20°C° 0 mm 1 mps 649 mmHg 36%
    13:00 +20°C° 0 mm 2 mps 649 mmHg 34%
    14:00 +21°C° 0 mm 2 mps 648 mmHg 32%
    15:00 +19°C° 0 mm 2 mps 648 mmHg 37%
    16:00 +19°C° 0 mm 1 mps 648 mmHg 42%
    17:00 +18°C° 0 mm 1 mps 647 mmHg 47%
    18:00 +15°C° 0 mm 1 mps 647 mmHg 54%
    19:00 +13°C° 0 mm 1 mps 648 mmHg 60%
    20:00 +11°C° 0 mm 1 mps 648 mmHg 67%
    21:00 +10°C° 0 mm 1 mps 648 mmHg 71%
    22:00 +10°C° 0 mm 1 mps 648 mmHg 74%
    23:00 +9°C° 0 mm 1 mps 648 mmHg 77%

    4 June, Thursday

    Time Temperature Precipitation Wind Pressure Humidity
    00:00 +9°C° 0 mm 1 mps 649 mmHg 78%
    01:00 +10°C° 0 mm 1 mps 649 mmHg 78%
    02:00 +10°C° 0 mm 1 mps 649 mmHg 78%
    03:00 +9°C° 0 mm 0 mps 649 mmHg 80%
    04:00 +9°C° 0 mm 0 mps 649 mmHg 82%
    05:00 +9°C° 0 mm 0 mps 649 mmHg 84%
    06:00 +9°C° 0 mm 0 mps 649 mmHg 83%
    07:00 +10°C° 0 mm 1 mps 649 mmHg 82%
    08:00 +11°C° 0 mm 1 mps 649 mmHg 81%
    09:00 +11°C° 0 mm 1 mps 649 mmHg 79%
    10:00 +10°C° 0 mm 2 mps 649 mmHg 77%
    11:00 +12°C° 0 mm 2 mps 649 mmHg 75%
    12:00 +10°C° 0.1 mm 2 mps 648 mmHg 76%
    13:00 +10°C° 0.1 mm 3 mps 647 mmHg 78%
    14:00 +10°C° 0.1 mm 3 mps 646 mmHg 79%
    15:00 +9°C° 0 mm 3 mps 646 mmHg 80%
    16:00 +9°C° 0 mm 3 mps 646 mmHg 81%
    17:00 +8°C° 0 mm 2 mps 647 mmHg 82%
    18:00 +8°C° 0 mm 2 mps 648 mmHg 85%
    19:00 +7°C° 0 mm 2 mps 648 mmHg 88%
    20:00 +6°C° 0 mm 2 mps 649 mmHg 90%
    21:00 +7°C° 0.1 mm 1 mps 649 mmHg 90%
    22:00 +7°C° 0.1 mm 1 mps 650 mmHg 90%
    23:00 +7°C° 0.1 mm 1 mps 650 mmHg 90%

    5 June, Friday

    Time Temperature Precipitation Wind Pressure Humidity
    00:00 +6°C° 0 mm 1 mps 650 mmHg 90%
    01:00 +6°C° 0 mm 1 mps 650 mmHg 90%
    02:00 +4°C° 0 mm 0 mps 649 mmHg 90%
    03:00 +4°C° 0 mm 0 mps 649 mmHg 88%
    04:00 +3°C° 0 mm 0 mps 649 mmHg 86%
    05:00 +3°C° 0 mm 0 mps 649 mmHg 84%
    06:00 +4°C° 0 mm 0 mps 650 mmHg 80%
    07:00 +6°C° 0 mm 1 mps 651 mmHg 77%
    08:00 +7°C° 0 mm 1 mps 651 mmHg 73%
    09:00 +9°C° 0 mm 1 mps 652 mmHg 64%
    10:00 +12°C° 0 mm 1 mps 652 mmHg 55%
    11:00 +15°C° 0 mm 1 mps 653 mmHg 46%
    12:00 +16°C° 0 mm 1 mps 653 mmHg 42%
    13:00 +17°C° 0 mm 2 mps 652 mmHg 39%
    14:00 +18°C° 0 mm 2 mps 652 mmHg 36%
    15:00 +17°C° 0 mm 2 mps 652 mmHg 40%
    16:00 +16°C° 0 mm 1 mps 651 mmHg 43%
    17:00 +15°C° 0 mm 1 mps 651 mmHg 47%
    18:00 +13°C° 0 mm 1 mps 651 mmHg 52%
    19:00 +11°C° 0 mm 1 mps 651 mmHg 57%
    20:00 +8°C° 0 mm 0 mps 651 mmHg 62%
    21:00 +8°C° 0 mm 0 mps 651 mmHg 62%
    22:00 +7°C° 0 mm 0 mps 651 mmHg 62%
    23:00 +7°C° 0 mm 0 mps 651 mmHg 61%

    6 June, Saturday

    Time Temperature Precipitation Wind Pressure Humidity
    00:00 +8°C° 0 mm 1 mps 651 mmHg 61%
    01:00 +8°C° 0 mm 1 mps 651 mmHg 62%
    02:00 +7°C° 0 mm 1 mps 651 mmHg 62%
    03:00 +7°C° 0 mm 1 mps 650 mmHg 60%
    04:00 +7°C° 0 mm 1 mps 650 mmHg 58%
    05:00 +7°C° 0 mm 1 mps 650 mmHg 57%
    06:00 +8°C° 0 mm 1 mps 650 mmHg 54%
    07:00 +9°C° 0 mm 1 mps 651 mmHg 50%
    08:00 +10°C° 0 mm 1 mps 652 mmHg 47%
    09:00 +13°C° 0 mm 1 mps 652 mmHg 41%
    10:00 +16°C° 0 mm 1 mps 653 mmHg 36%
    11:00 +20°C° 0 mm 1 mps 653 mmHg 30%
    12:00 +21°C° 0 mm 1 mps 653 mmHg 29%
    13:00 +21°C° 0 mm 2 mps 652 mmHg 27%
    14:00 +23°C° 0 mm 2 mps 652 mmHg 26%
    15:00 +21°C° 0 mm 1 mps 651 mmHg 31%
    16:00 +20°C° 0 mm 1 mps 651 mmHg 36%
    17:00 +18°C° 0 mm 1 mps 650 mmHg 41%
    18:00 +15°C° 0 mm 1 mps 650 mmHg 45%
    19:00 +13°C° 0 mm 1 mps 650 mmHg 49%
    20:00 +11°C° 0 mm 1 mps 650 mmHg 53%
    21:00 +11°C° 0 mm 1 mps 650 mmHg 54%
    22:00 +10°C° 0 mm 1 mps 650 mmHg 55%
    23:00 +10°C° 0 mm 1 mps 650 mmHg 57%
    Show more